Previsão horária em Abaran

Hoje, 14 Abril, Quarta-feira

Tempo Temperatura Precipitação Vento Pressão Humidade
00:00 +11°C° 0 mm 1 m/s 731 mmHg 78%
01:00 +11°C° 0 mm 1 m/s 731 mmHg 77%
02:00 +10°C° 0 mm 0 m/s 730 mmHg 76%
03:00 +10°C° 0 mm 0 m/s 730 mmHg 75%
04:00 +10°C° 0 mm 0 m/s 730 mmHg 75%
05:00 +12°C° 0 mm 1 m/s 730 mmHg 74%
06:00 +12°C° 0 mm 1 m/s 729 mmHg 72%
07:00 +12°C° 0 mm 2 m/s 730 mmHg 69%
08:00 +13°C° 0 mm 2 m/s 730 mmHg 66%
09:00 +13°C° 0 mm 3 m/s 730 mmHg 62%
10:00 +14°C° 0 mm 4 m/s 730 mmHg 57%
11:00 +15°C° 0 mm 4 m/s 729 mmHg 53%
12:00 +16°C° 0 mm 5 m/s 729 mmHg 50%
13:00 +16°C° 0 mm 5 m/s 729 mmHg 52%
14:00 +16°C° 0 mm 6 m/s 728 mmHg 53%
15:00 +15°C° 0 mm 6 m/s 728 mmHg 55%
16:00 +14°C° 0.1 mm 6 m/s 728 mmHg 60%
17:00 +13°C° 0.1 mm 5 m/s 728 mmHg 66%
18:00 +12°C° 0.1 mm 5 m/s 728 mmHg 71%
19:00 +12°C° 0.2 mm 4 m/s 728 mmHg 74%
20:00 +11°C° 0.2 mm 3 m/s 729 mmHg 78%
21:00 +12°C° 0.2 mm 2 m/s 729 mmHg 82%
22:00 +12°C° 0.2 mm 2 m/s 729 mmHg 82%
23:00 +12°C° 0.2 mm 2 m/s 728 mmHg 83%

Amanhã, 15 Abril, Quinta-feira

Tempo Temperatura Precipitação Vento Pressão Humidade
00:00 +12°C° 0.2 mm 2 m/s 728 mmHg 84%
01:00 +12°C° 0.2 mm 2 m/s 728 mmHg 83%
02:00 +12°C° 0.2 mm 2 m/s 727 mmHg 82%
03:00 +12°C° 0.2 mm 2 m/s 727 mmHg 81%
04:00 +12°C° 0.1 mm 2 m/s 727 mmHg 80%
05:00 +10°C° 0.1 mm 2 m/s 727 mmHg 80%
06:00 +10°C° 0.1 mm 2 m/s 727 mmHg 79%
07:00 +10°C° 0.2 mm 2 m/s 727 mmHg 80%
08:00 +10°C° 0.2 mm 2 m/s 727 mmHg 80%
09:00 +12°C° 0.2 mm 2 m/s 727 mmHg 81%
10:00 +10°C° 0.7 mm 2 m/s 727 mmHg 82%
11:00 +10°C° 0.7 mm 2 m/s 727 mmHg 83%
12:00 +10°C° 0.7 mm 2 m/s 727 mmHg 85%
13:00 +10°C° 1.6 mm 2 m/s 727 mmHg 86%
14:00 +10°C° 1.6 mm 2 m/s 727 mmHg 86%
15:00 +10°C° 1.6 mm 3 m/s 726 mmHg 87%
16:00 +10°C° 0.1 mm 3 m/s 726 mmHg 85%
17:00 +10°C° 0.1 mm 3 m/s 726 mmHg 83%
18:00 +11°C° 0.1 mm 3 m/s 727 mmHg 80%
19:00 +10°C° 0 mm 3 m/s 727 mmHg 80%
20:00 +10°C° 0 mm 2 m/s 727 mmHg 80%
21:00 +10°C° 0 mm 2 m/s 728 mmHg 80%
22:00 +9°C° 0 mm 2 m/s 728 mmHg 81%
23:00 +9°C° 0 mm 3 m/s 728 mmHg 81%

Depois de amanhã, 16 Abril, Sexta-feira

Tempo Temperatura Precipitação Vento Pressão Humidade
00:00 +8°C° 0 mm 3 m/s 727 mmHg 82%
01:00 +8°C° 0 mm 3 m/s 727 mmHg 82%
02:00 +7°C° 0 mm 2 m/s 727 mmHg 82%
03:00 +7°C° 0 mm 2 m/s 727 mmHg 82%
04:00 +7°C° 0 mm 2 m/s 727 mmHg 81%
05:00 +7°C° 0 mm 2 m/s 727 mmHg 81%
06:00 +7°C° 0 mm 2 m/s 727 mmHg 81%
07:00 +8°C° 0 mm 2 m/s 728 mmHg 72%
08:00 +11°C° 0 mm 1 m/s 728 mmHg 62%
09:00 +13°C° 0 mm 1 m/s 728 mmHg 53%
10:00 +14°C° 0 mm 1 m/s 728 mmHg 49%
11:00 +15°C° 0 mm 1 m/s 727 mmHg 45%
12:00 +16°C° 0 mm 1 m/s 727 mmHg 40%
13:00 +17°C° 0 mm 2 m/s 726 mmHg 41%
14:00 +17°C° 0 mm 2 m/s 726 mmHg 42%
15:00 +17°C° 0 mm 3 m/s 726 mmHg 42%
16:00 +16°C° 0.4 mm 3 m/s 726 mmHg 52%
17:00 +13°C° 0.4 mm 4 m/s 726 mmHg 62%
18:00 +12°C° 0.4 mm 4 m/s 727 mmHg 71%
19:00 +11°C° 0.1 mm 3 m/s 727 mmHg 76%
20:00 +10°C° 0.1 mm 3 m/s 728 mmHg 80%
21:00 +9°C° 0.1 mm 3 m/s 728 mmHg 84%
22:00 +9°C° 0.1 mm 2 m/s 728 mmHg 83%
23:00 +9°C° 0.1 mm 2 m/s 728 mmHg 82%

17 Abril, Sábado

Tempo Temperatura Precipitação Vento Pressão Humidade
00:00 +10°C° 0.1 mm 1 m/s 728 mmHg 81%
01:00 +8°C° 0 mm 2 m/s 728 mmHg 76%
02:00 +8°C° 0 mm 3 m/s 728 mmHg 72%
03:00 +7°C° 0 mm 3 m/s 728 mmHg 67%
04:00 +5°C° 0 mm 4 m/s 728 mmHg 64%
05:00 +5°C° 0 mm 4 m/s 728 mmHg 61%
06:00 +5°C° 0 mm 4 m/s 728 mmHg 58%
07:00 +6°C° 0 mm 5 m/s 728 mmHg 51%
08:00 +8°C° 0 mm 6 m/s 728 mmHg 45%
09:00 +9°C° 0 mm 6 m/s 729 mmHg 38%
10:00 +10°C° 0 mm 7 m/s 728 mmHg 35%
11:00 +11°C° 0 mm 8 m/s 728 mmHg 31%
12:00 +12°C° 0 mm 9 m/s 728 mmHg 28%
13:00 +13°C° 0 mm 9 m/s 728 mmHg 27%
14:00 +13°C° 0 mm 9 m/s 727 mmHg 26%
15:00 +13°C° 0 mm 9 m/s 727 mmHg 25%
16:00 +14°C° 0 mm 7 m/s 728 mmHg 27%
17:00 +13°C° 0 mm 5 m/s 728 mmHg 30%
18:00 +13°C° 0 mm 3 m/s 729 mmHg 32%
19:00 +11°C° 0 mm 3 m/s 729 mmHg 39%
20:00 +10°C° 0 mm 2 m/s 730 mmHg 46%
21:00 +9°C° 0 mm 1 m/s 731 mmHg 53%
22:00 +9°C° 0 mm 1 m/s 731 mmHg 54%
23:00 +9°C° 0 mm 1 m/s 731 mmHg 55%

18 Abril, Domingo

Tempo Temperatura Precipitação Vento Pressão Humidade
00:00 +8°C° 0 mm 1 m/s 730 mmHg 56%
01:00 +7°C° 0 mm 2 m/s 730 mmHg 54%
02:00 +7°C° 0 mm 2 m/s 730 mmHg 51%
03:00 +7°C° 0 mm 2 m/s 730 mmHg 48%
04:00 +7°C° 0 mm 2 m/s 730 mmHg 46%
05:00 +7°C° 0 mm 3 m/s 730 mmHg 45%
06:00 +7°C° 0 mm 3 m/s 730 mmHg 43%
07:00 +8°C° 0 mm 4 m/s 730 mmHg 38%
08:00 +12°C° 0 mm 5 m/s 730 mmHg 34%
09:00 +14°C° 0 mm 6 m/s 731 mmHg 29%
10:00 +15°C° 0 mm 6 m/s 730 mmHg 27%
11:00 +17°C° 0 mm 7 m/s 730 mmHg 24%
12:00 +20°C° 0 mm 7 m/s 730 mmHg 22%
13:00 +20°C° 0 mm 6 m/s 730 mmHg 22%
14:00 +21°C° 0 mm 5 m/s 730 mmHg 22%
15:00 +21°C° 0 mm 4 m/s 729 mmHg 23%
16:00 +19°C° 0 mm 4 m/s 730 mmHg 31%
17:00 +17°C° 0 mm 3 m/s 730 mmHg 39%
18:00 +14°C° 0 mm 3 m/s 730 mmHg 47%
19:00 +14°C° 0 mm 2 m/s 731 mmHg 53%
20:00 +13°C° 0 mm 2 m/s 731 mmHg 58%
21:00 +12°C° 0 mm 1 m/s 731 mmHg 63%
22:00 +12°C° 0 mm 1 m/s 731 mmHg 62%
23:00 +12°C° 0 mm 1 m/s 731 mmHg 62%

19 Abril, Segunda-feira

Tempo Temperatura Precipitação Vento Pressão Humidade
00:00 +13°C° 0 mm 1 m/s 730 mmHg 61%
01:00 +12°C° 0 mm 1 m/s 730 mmHg 61%
02:00 +12°C° 0 mm 1 m/s 729 mmHg 61%
03:00 +12°C° 0 mm 1 m/s 729 mmHg 61%
04:00 +12°C° 0 mm 1 m/s 728 mmHg 60%
05:00 +12°C° 0 mm 1 m/s 728 mmHg 58%
06:00 +13°C° 0 mm 1 m/s 728 mmHg 57%
07:00 +15°C° 0 mm 1 m/s 728 mmHg 50%
08:00 +16°C° 0 mm 1 m/s 728 mmHg 43%
09:00 +19°C° 0 mm 1 m/s 728 mmHg 36%
10:00 +19°C° 0 mm 2 m/s 728 mmHg 33%
11:00 +20°C° 0 mm 3 m/s 727 mmHg 31%
12:00 +22°C° 0 mm 4 m/s 727 mmHg 29%
13:00 +22°C° 0.1 mm 4 m/s 726 mmHg 32%
14:00 +22°C° 0.1 mm 5 m/s 726 mmHg 34%
15:00 +22°C° 0.1 mm 6 m/s 725 mmHg 37%
16:00 +21°C° 0.1 mm 5 m/s 725 mmHg 41%
17:00 +20°C° 0.1 mm 5 m/s 725 mmHg 45%
18:00 +19°C° 0.1 mm 5 m/s 725 mmHg 49%
19:00 +18°C° 0 mm 4 m/s 725 mmHg 52%
20:00 +17°C° 0 mm 3 m/s 726 mmHg 55%
21:00 +16°C° 0 mm 3 m/s 726 mmHg 58%
22:00 +14°C° 0 mm 3 m/s 726 mmHg 60%
23:00 +15°C° 0 mm 2 m/s 726 mmHg 62%
Mostrar mais

Necessitamos do seu Consentimento

A Meteoprog e os seus Fornecedores de Serviços podem armazenar e aceder a dados pessoais como cookies, identificadores do dispositivo ou outras tecnologias semelhantes existentes no seu dispositivo e processar estes dados para personalizar conteúdos e anúncios, assim como funcionalidades nas redes sociais e análise de tráfego.

  • Armazenar e/ou aceder a informações no seu dispositivo

    Os cookies, identificadores do dispositivo ou outras informações podem ser armazenados ou acedidos no seu dispositivo, para os fins acima indicados.

  • Anúncios e conteúdos personalizados, medição de anúncios e conteúdos, dados sobre o público-alvo e desenvolvimento de produtos

    Os anúncios e os conteúdos podem ser personalizados com base num perfil. Podem ser adicionados dados adicionais para uma maior personalização dos anúncios e dos conteúdos. A eficácia dos anúncios e dos conteúdos pode ser medida. Podem ser obtidas informações sobre o público que visualizou os anúncios e os conteúdos. Estes dados podem ser usados para desenvolver ou melhorar sistemas, softwares ou a experiência do utilizador.

Ao clicar em "Eu concordo”, permitirá o uso de cookies, identificadores do dispositivo e web beacons mencionados ou outras tecnologias semelhantes. As configurações do navegador do seu dispositivo podem ser alteradas.

Para certos fins, podem ser invocados interesses legítimos ao invés de consentimento. Pode ler mais informação sobre este assunto na nossa Política de Privacidade e Cookies.